Regional Weather Roundup
Issued by NWS

Home | Current Version | Previous Version | Text Only | Print | Product List | Glossary On
Versions: 1 2 3 4 5 6 7 8 9 10 11 12 13 14 15 16 17 18 19 20 21 22 23 24 25 26 27 28 29 30 31 32 33 34 35 36 37 38 39 40 41 42 43 44 45 46 47 48 49 50
000
ASUS44 KBMX 281910
RWRAL

ALABAMA REGIONAL WEATHER ROUNDUP
NATIONAL WEATHER SERVICE BIRMINGHAM AL
200 PM CDT TUE JUL 28 2015

NOTE: "FAIR" INDICATES FEW OR NO CLOUDS BELOW 12,000 FEET
WITH NO SIGNIFICANT WEATHER AND/OR OBSTRUCTIONS TO VISIBILITY.

THE REMARK "TC" DENOTES TEMPERATURE IN DEGREES CELSIUS.

ALZ001>011-014-016>018-020-282000-
NORTH ALABAMA

CITY           SKY/WX    TMP DP  RH WIND       PRES   REMARKS
MUSCLE SHOALS  MOSUNNY   96  73  47 W9        30.01F HX 105
HUNTSVILLE     MOSUNNY   99  68  36 VRB6      29.99F HX 104
DECATUR        SUNNY     95  70  44 W9        30.00F HX 101
HALEYVILLE     FAIR      93  73  52 VRB3      30.05F HX 101
GADSDEN        MOSUNNY   95  68  41 N3        29.97F HX  99
$$

ALZ012-013-022-023-030>036-040>044-282000-
WEST CENTRAL ALABAMA

CITY           SKY/WX    TMP DP  RH WIND       PRES   REMARKS
TUSCALOOSA     MOSUNNY   97  72  44 W8        29.98F HX 105
$$

ALZ015-024>027-033>036-040>044-282000-
CENTRAL ALABAMA

CITY           SKY/WX    TMP DP  RH WIND       PRES   REMARKS
BIRMINGHAM     MOSUNNY   95  73  48 VRB6      30.02F HX 104
MONTGOMERY     MOSUNNY   96  74  48 VRB5      29.98F HX 107
SHELBY CO ARPT MOSUNNY   93  74  53 NW7       30.01S HX 103
MAXWELL AFB    MOSUNNY   94  76  56 W6        29.97F HX 106
GREENVILLE     FAIR      95  70  44 N7        29.98F HX 101
$$

ALZ019-021-028-029-037-038-045>048-282000-
EAST CENTRAL ALABAMA

CITY           SKY/WX    TMP DP  RH WIND       PRES   REMARKS
ANNISTON       SUNNY     94  73  50 S6        29.99F HX 103
ALEXANDER CITY MOSUNNY   92  67  43 NW7       30.00F HX  95
AUBURN         MOSUNNY   93  68  43 NW8       30.01F HX  97
$$

ALZ051>064-282000-
SOUTHWEST ALABAMA

CITY           SKY/WX    TMP DP  RH WIND       PRES   REMARKS
MOBILE         PTSUNNY   94  74  52 CALM      30.00F HX 104
BROOKLEY FIELD SUNNY     95  74  50 E7        30.00S HX 105
EVERGREEN      SUNNY     98  71  41 CALM      29.99F HX 106
$$

ALZ049-050-065>069-282000-
SOUTHEAST ALABAMA

CITY           SKY/WX    TMP DP  RH WIND       PRES   REMARKS
DOTHAN         PTSUNNY   95  69  42 VRB5      30.00F HX 100
OZARK          MOSUNNY   97  73  47 N12       29.96F HX 107
TROY           PTSUNNY   95  72  47 VRB3      29.98F HX 103
EUFAULA        FAIR      99  74  44 W6        29.95F HX 110
$$


USA.gov is the U.S. government's official web portal to all federal, state and local government web resources and services.